Regional Weather Roundup
Issued by NWS

Home | Current Version | Previous Version | Text Only | Print | Product List | Glossary Off
Versions: 1 2 3 4 5 6 7 8 9 10 11 12 13 14 15 16 17 18 19 20 21 22 23 24 25 26 27 28 29 30 31 32 33 34 35 36 37 38 39 40 41 42 43 44 45 46 47 48 49 50

000
ASUS45 KTFX 242004
RWRMT
MONTANA HOURLY WEATHER ROUNDUP
NATIONAL WEATHER SERVICE GREAT FALLS MT
204 PM MDT FRI OCT 24 2014

NOTE: "FAIR" INDICATES FEW OR NO CLOUDS BELOW 12000 FEET WITH NO
SIGNIFICANT WEATHER AND/OR OBSTRUCTIONS TO VISIBILITY.

* THESE STATIONS ARE NOT UNDER NWS QUALITY CONTROL. THEY DO NOT
   REPORT WEATHER SUCH AS PRECIPITATION OR FOG.

MTZ001>007-043-242100-
WEST OF THE DIVIDE
CITY           SKY/WX    TMP DP  RH WIND       PRES   REMARKS
KALISPELL      CLOUDY    52  36  55 SE8       30.09F
MISSOULA       CLOUDY    52  43  72 SE9       30.12F
BUTTE          LGT RAIN  46  37  71 CALM      30.14F
MULLAN PASS    CLOUDY    39  34  82 CALM      30.09F
* ESSEX        N/A       48  34  59 E1G6       N/A
* LINCOLN      N/A       49  36  61 W5G12      N/A
* LOOKOUT PASS N/A       46  36  68 SE4G10     N/A
* POLSON       N/A       52  35  52 S3G10      N/A
* RONAN APT    CLOUDY    54  37  53 S6         N/A
* SEELEY LAKE  N/A       52  34  50 S2G8       N/A
* THOMP F APT  CLOUDY    54  39  57 S7G15      N/A
$$

MTZ008-052>055-242100-
SOUTHWEST MONTANA
CITY           SKY/WX    TMP DP  RH WIND       PRES   REMARKS
BOZEMAN        CLOUDY    50  37  61 W9        30.11F
DILLON         CLOUDY    52  41  66 N3        30.11S
W YELLOWSTONE  CLOUDY    50  36  59 SW5       30.17F
* THREE FORKS  CLOUDY    52  52 100 NW5        N/A
* BOULDER HILL N/A       48  32  54 S11        N/A
* MONIDA PASS  N/A       48  37  66 SE19G24    N/A
* RAYNOLDS PAS N/A       52  37  57 S17G29     N/A
* WHITEHALL    N/A       51  41  69 SW4G9      N/A
* WISE RIVER   N/A       44  39  83 W5         N/A
$$

MTZ009>010-012-014-046-048-049-054-242100-
EAST SLOPES AND CENTRAL MONTANA
CITY           SKY/WX    TMP DP  RH WIND       PRES   REMARKS
CUT BANK       CLOUDY    52  28  40 W29G39    29.99F
GREAT FALLS    PTSUNNY   57  34  42 SW17G23   30.02F
HELENA         PTSUNNY   57  36  46 W13       30.08F
MALMSTROM AFB  PTSUNNY   57  34  42 SW18G28   30.03F
* CONRAD       CLOUDY    55  32  42 W8         N/A
* DEARBORN     N/A       55  33  43 S5G17      N/A
* EAST GLACIER N/A       45  30  56 W22G40     N/A
* MONARCH      N/A       49  27  43 SW9G16     N/A
* PENDROY      N/A       51  27  39 W12G20     N/A
* ROGERS PASS  N/A       46  32  58 SE12G29    N/A
* SAINT MARY   N/A       46  29  52 SW9G22     N/A
* SWEET GRASS  N/A       52  24  34 W26G35     N/A
$$

MTZ011-013-016-021-035-040-045-047-050-051-242100-
NORTH CENTRAL MONTANA
CITY           SKY/WX    TMP DP  RH WIND       PRES   REMARKS
HAVRE          CLOUDY    57  30  36 W15       30.00S
LEWISTOWN      CLOUDY    55  36  49 W6        30.05F
* CHESTER      N/A       53  27  37 SW13G21    N/A
* DENTON       N/A       58  32  37 W17        N/A
* GEYSER       N/A       55  31  40 SW17G27    N/A
* JUDITH GAP   N/A       51  39  64 VRB6       N/A
* LOMA         N/A       59  30  33 SW12G23    N/A
$$

MTZ017>020-022>027-061-062-242100-
NORTHEAST MONTANA
CITY           SKY/WX    TMP DP  RH WIND       PRES   REMARKS
GLASGOW        PTSUNNY   57  27  32 NW21G31   29.97S
GLENDIVE       PTSUNNY   59  28  31 NW15G20   30.02S
JORDAN         CLOUDY    59  28  31 NW17      30.02S
SIDNEY         PTSUNNY   64  28  26 W23G29    29.97S
WOLF POINT     PTSUNNY   63  28  27 NW22G30   29.96F
* BEAVER HILL  N/A       58  28  32 W21G29     N/A
* CIRCLE       N/A       61  32  34 W8G19      N/A
* LINDSAY DVD  N/A       59  27  29 W19G28     N/A
* NAVAJO       N/A       59  29  32 NW20G27    N/A
$$

MTZ028>042-056>058-242100-
SOUTHCENTRAL AND SOUTHEAST MONTANA
CITY           SKY/WX    TMP DP  RH WIND       PRES   REMARKS
BAKER          PTSUNNY   59  32  36 NW15      30.03F
BILLINGS       CLOUDY    55  39  55 N7        30.06S
LIVINGSTON     CLOUDY    55  39  55 NW9       30.06F
MILES CITY     CLOUDY    61  30  31 NW15      30.03F
* LAUREL APT   CLOUDY    57  37  47 N7         N/A
* ROUNDUP APT  CLOUDY    57  36  46 N/A        N/A
* ALZADA       N/A       65  34  32 N8         N/A
* HYSHAM       N/A       57  34  42 W2         N/A
* LAME DEER    N/A       54  34  47 N6         N/A
* REED POINT   N/A       55  39  55 N/A        N/A
* ROSCOE HILL  N/A       53  30  41 NE9        N/A
$$

REGIONAL REPORTS...DAKOTAS
CITY           SKY/WX    TMP DP  RH WIND       PRES   REMARKS
WILLISTON      PTCLDY    63  30  29 W24G32    29.92S
DICKINSON      PTSUNNY   61  36  39 W17G26    29.95S
BEACH          N/A       57  28  33 NW17G24   30.01S
CROSBY         SUNNY     59  32  36 W25G33    29.87S
TIOGA          SUNNY     59  28  31 W26G36    29.91F
BISMARCK       PTCLDY    73  36  26 W18G24    29.89F
GRAND FORKS    SUNNY     73  41  32 W17G25    29.72F
FARGO          SUNNY     77  43  30 W18       29.76F
BUFFALO SD     SUNNY     64  28  26 NW17G26   29.95S
RAPID CITY     SUNNY     70  37  30 N17G23    30.00F
$$

REGIONAL REPORTS...WYOMING/IDAHO/WASHINGTON
CITY           SKY/WX    TMP DP  RH WIND       PRES   REMARKS
GILLETTE       SUNNY     66  34  31 VRB5      30.04F
SHERIDAN       PTCLDY    68  34  28 N/A       30.03F
CODY           CLOUDY    68  30  24 E5        30.03F
YELLOWSTONE LA CLOUDY    52  28  40 N/A       30.23F
SALMON         CLOUDY    48  45  89 CALM      30.11F
MULLAN PASS    CLOUDY    39  34  82 CALM      30.09S
SAND POINT     CLOUDY    52  41  66 CALM      30.10F
SPOKANE        CLOUDY    52  43  72 E5        30.07F

$$




USA.gov is the U.S. government's official web portal to all federal, state and local government web resources and services.